Retour au catalogue

COSMOS 2251 DEB

ActifLEO
NORAD 33761·DEBRIS·🇷🇺 Russia

Lancé Jun 16, 1993 depuis Plesetsk Cosmodrome

Loading…

Prochains Passages (prochaines 24 heures)

TLE

FraisSource: Space-Track

Époque: Sep 13, 2026, 21:39 UTC

1 33761U 93036J   26256.90227981  .00000655  00000-0  20232-3 0  9998
2 33761  74.0337 101.3246 0022417 119.2747 348.3831 14.43179230922030

Suivez COSMOS 2251 DEB en temps réel avec AllMySat

Download on the App Store